Вернуться в каталог

STARLINK-5388

АктивенСвязьVLEO
NORAD 54844·PAYLOAD·🇺🇸 United States

Запущен Dec 28, 2022 с Cape Canaveral Space Force Station

Loading…

Ближайшие Пролёты (ближайшие 24 часа)

TLE

СвежийSource: CelesTrak SupGP

Эпоха: Sep 14, 2026, 22:05 UTC

1 54844C 22177AA  26257.92062500 -.00019891  00000+0 -72058-3 0  2571
2 54844  43.0010 147.0589 0001628 266.8615 225.7528 15.27582156    14

Отслеживайте STARLINK-5388 в реальном времени с AllMySat

Download on the App Store